Flag for Iran Weather past 2 weeks in Esfahãn, Iran

Now
73 °F

Duststorm.


Feels Like: 75 °F
Forecast: 62 / 87 °F
Wind: 5 mph from Northwest

Location: Esfahan

Current Time: May 23, 2015 at 12:37:10 AM

Latest Report: May 23, 2015 at 12:00 AM


Visibility: 2 mi

Pressure: 30.04 "Hg

Humidity: 19%

Dew point: 28 °F

Location of EsfahãnLocation

Historic Weather in Esfahãn — Graph

°F

Esfahãn temperature yesterday

Maximum temperature yesterday: 90 °F (at 4:30 PM)
Minimum temperature yesterday: 57 °F (at 5:00 AM)
Average temperature yesterday: 76 °F

Past Weeks' High & Low Weather Summary

 TemperatureHumidityPressure
High91 °F (May 19, 5:30 PM)100% (May 8, 5:30 AM)30.21 "Hg (May 8, 5:30 AM)
Low43 °F (May 8, 6:00 AM)2% (May 20, 1:30 PM)29.89 "Hg (May 9, 4:00 PM)
Average70 °F27%30.04 "Hg
* Reported May 7 11:30 PM — May 22 11:30 PM, Esfahãn, Weather by CustomWeather, © 2015

Note: Actual official high and low records may vary slightly from our data, if they occured in-between our weather recording intervals... More about our weather records

Advertising

Esfahãn weather history for previous 24 hours

 ConditionsComfort  
Time TempWeatherWind HumidityBarometerVisibility
11:30 PM
Fri, May 22
73 °FPassing clouds.5 mph17%30.04 "Hg4 mi
11:00 PM73 °FPassing clouds.5 mph17%30.04 "Hg4 mi
10:30 PM79 °FPassing clouds.5 mph15%30.01 "Hg4 mi
10:00 PM81 °FPassing clouds.7 mph15%30.01 "Hg3 mi
9:30 PM79 °FPassing clouds.9 mph15%30.01 "Hg3 mi
9:00 PM81 °FScattered clouds.5 mph11%29.98 "Hg3 mi
8:30 PM84 °FScattered clouds.5 mph10%29.98 "Hg3 mi
8:00 PM84 °FBroken clouds.5 mph10%29.98 "Hg3 mi
7:30 PM86 °FBroken clouds.7 mph11%29.98 "Hg3 mi
7:00 PM88 °FPartly sunny.9 mph10%29.98 "Hg3 mi
6:30 PM88 °FClear.9 mph9%29.98 "Hg4 mi
6:00 PM88 °FClear.7 mph8%29.98 "Hg4 mi
5:30 PM90 °FClear.9 mph9%29.98 "Hg4 mi
5:00 PM88 °FClear.9 mph9%29.98 "Hg4 mi
4:30 PM90 °FClear.12 mph8%29.98 "Hg4 mi
4:00 PM88 °FClear.9 mph9%30.01 "Hg4 mi
3:30 PM88 °FClear.7 mph9%30.01 "Hg4 mi
3:00 PM88 °FClear.14 mph9%30.01 "Hg4 mi
2:30 PM88 °FClear.No wind9%30.04 "Hg4 mi
2:00 PM86 °FClear.No wind10%30.04 "Hg4 mi
1:30 PM86 °FDuststorm.No wind10%30.07 "Hg3 mi
1:00 PM86 °FDuststorm.7 mph14%30.07 "Hg2 mi
12:30 PM84 °FHaze.7 mph15%30.07 "Hg2 mi
12:00 PM82 °FHaze.5 mph16%30.09 "Hg2 mi
11:30 AM81 °FHaze.5 mph17%30.09 "Hg2 mi
11:00 AM81 °FHaze.7 mph18%30.09 "Hg2 mi
10:30 AM79 °FHaze.7 mph20%30.09 "Hg2 mi
10:00 AM77 °FSunny.7 mph21%30.09 "Hg2 mi
9:30 AM75 °FHaze.5 mph22%30.09 "Hg2 mi
9:00 AM73 °FHaze.5 mph25%30.09 "Hg2 mi
8:30 AM70 °FHaze.5 mph27%30.09 "Hg2 mi
8:00 AM66 °FHaze.7 mph28%30.09 "Hg2 mi
7:30 AM61 °FHaze.7 mph31%30.09 "Hg2 mi
7:00 AM61 °FHaze.5 mph34%30.09 "Hg2 mi
6:30 AM59 °FHaze.5 mph39%30.07 "Hg2 mi
6:00 AM57 °FHaze.7 mph41%30.07 "Hg2 mi
5:30 AM59 °FHaze.5 mph39%30.07 "Hg2 mi
5:00 AM57 °FHaze.7 mph41%30.04 "Hg3 mi
4:30 AM59 °FHaze.7 mph36%30.04 "Hg3 mi
4:00 AM59 °FHaze.7 mph36%30.04 "Hg3 mi
3:30 AM61 °FHaze.7 mph34%30.04 "Hg3 mi
3:00 AM64 °FHaze.5 mph30%30.04 "Hg3 mi
2:30 AM68 °FHaze.7 mph26%30.04 "Hg3 mi
2:00 AM68 °FHaze.7 mph24%30.04 "Hg3 mi
1:30 AM72 °FHaze.5 mph23%30.04 "Hg3 mi
1:00 AM73 °FHaze.14 mph22%30.04 "Hg2 mi
12:30 AM73 °FSandstorm.18 mph22%30.04 "Hg2 mi
12:00 AM75 °FSandstorm.22 mph21%30.01 "Hg2 mi
Weather by CustomWeather, © 2015

See weather overviewHow to use our weather pages